User: anonymous   Login
Location: Columbia
(38.9520°N, 92.3340°W)
Time: 02:26:45
(UTC-05:00)
Language:

Cosmos 2219 Rocket - Orbit

View from above orbital plane
View from above orbital plane
View from above satellite
View from above satellite

Ground track
Ground track

The orbit data is extracted from the following two-line orbital elements,

1 22220U 92076B   15215.14779252  .00000016  00000-0  31938-4 0  9998
2 22220 070.9998 059.0637 0014715 239.8622 259.6307 14.16371555173913
Epoch (UTC): 03 August 2015 03:32:49
Eccentricity: 0.0014715
inclination: 70.9998°
perigee height: 827 km
apogee height: 848 km
right ascension of ascending node: 59.0637°
argument of perigee: 239.8622°
revolutions per day: 14.16371555
mean anomaly at epoch: 259.6307°
orbit number at epoch: 17391

The dashed part of the orbit path shows where the satellite is in the earth's shadow,  

DLR